Time,TemperatureF,DewpointF,PressureIn,WindDirection,WindDirectionDegrees,WindSpeedMPH,WindSpeedGustMPH,Humidity,HourlyPrecipIn,Conditions,Clouds,dailyrainin,SoftwareType,DateUTC
2013-05-05 00:09:00,53.0,51.0,29.95,East,96,6.0,12.0,93,0.05,,,0.81,weatherlink.com 1.10,2013-05-05 04:09:00,
2013-05-05 00:24:00,52.8,51.0,29.95,East,87,3.0,16.0,93,0.02,,,0.00,weatherlink.com 1.10,2013-05-05 04:24:00,
2013-05-05 00:39:00,52.8,51.0,29.95,ENE,65,7.0,15.0,93,0.01,,,0.00,weatherlink.com 1.10,2013-05-05 04:39:00,
2013-05-05 00:54:00,52.6,51.0,29.95,ENE,65,7.0,19.0,93,0.01,,,0.00,weatherlink.com 1.10,2013-05-05 04:54:00,
2013-05-05 01:09:00,52.7,51.0,29.95,East,79,7.0,13.0,93,0.00,,,0.00,weatherlink.com 1.10,2013-05-05 05:09:00,
2013-05-05 01:24:00,52.6,50.0,29.94,NE,34,10.0,16.0,92,0.01,,,0.01,weatherlink.com 1.10,2013-05-05 05:24:00,
2013-05-05 01:39:00,52.3,50.0,29.93,East,84,5.0,15.0,92,0.02,,,0.02,weatherlink.com 1.10,2013-05-05 05:39:00,
2013-05-05 01:54:00,52.1,50.0,29.91,NE,50,6.0,18.0,92,0.02,,,0.02,weatherlink.com 1.10,2013-05-05 05:54:00,
2013-05-05 02:09:00,52.1,50.0,29.90,ENE,57,4.0,18.0,92,0.02,,,0.02,weatherlink.com 1.10,2013-05-05 06:09:00,
2013-05-05 02:24:00,52.2,50.0,29.89,East,79,12.0,17.0,91,0.01,,,0.02,weatherlink.com 1.10,2013-05-05 06:24:00,
2013-05-05 02:39:00,52.1,50.0,29.88,NNE,14,7.0,18.0,91,0.00,,,0.02,weatherlink.com 1.10,2013-05-05 06:39:00,
2013-05-05 02:54:00,52.2,50.0,29.88,East,80,7.0,22.0,91,0.00,,,0.02,weatherlink.com 1.10,2013-05-05 06:54:00,
2013-05-05 03:09:00,52.1,49.0,29.86,ENE,68,11.0,21.0,90,0.00,,,0.02,weatherlink.com 1.10,2013-05-05 07:09:00,
2013-05-05 03:24:00,51.9,49.0,29.86,East,84,12.0,17.0,90,0.00,,,0.02,weatherlink.com 1.10,2013-05-05 07:24:00,
2013-05-05 03:39:00,51.8,49.0,29.84,ENE,77,15.0,15.0,90,0.00,,,0.02,weatherlink.com 1.10,2013-05-05 07:39:00,
2013-05-05 03:54:00,52.1,49.0,29.85,SE,131,4.0,18.0,89,0.00,,,0.02,weatherlink.com 1.10,2013-05-05 07:54:00,
2013-05-05 04:09:00,52.6,49.0,29.87,NE,50,10.0,17.0,88,0.00,,,0.02,weatherlink.com 1.10,2013-05-05 08:09:00,
2013-05-05 04:25:00,52.1,49.0,29.86,NE,34,4.0,20.0,90,0.02,,,0.04,weatherlink.com 1.10,2013-05-05 08:25:00,
2013-05-05 04:40:00,51.9,49.0,29.85,ENE,64,8.0,17.0,91,0.03,,,0.05,weatherlink.com 1.10,2013-05-05 08:40:00,
2013-05-05 04:55:00,51.8,50.0,29.86,ENE,77,13.0,15.0,92,0.04,,,0.06,weatherlink.com 1.10,2013-05-05 08:55:00,
2013-05-05 05:10:00,52.1,50.0,29.85,NNW,342,5.0,14.0,91,0.04,,,0.06,weatherlink.com 1.10,2013-05-05 09:10:00,
2013-05-05 05:25:00,52.2,50.0,29.85,ENE,74,9.0,14.0,91,0.02,,,0.06,weatherlink.com 1.10,2013-05-05 09:25:00,
2013-05-05 05:40:00,52.2,50.0,29.84,ENE,60,9.0,17.0,91,0.01,,,0.06,weatherlink.com 1.10,2013-05-05 09:40:00,
2013-05-05 05:55:00,52.1,50.0,29.85,ENE,58,7.0,13.0,92,0.01,,,0.07,weatherlink.com 1.10,2013-05-05 09:55:00,
2013-05-05 06:10:00,52.5,50.0,29.87,ENE,75,2.0,12.0,91,0.01,,,0.07,weatherlink.com 1.10,2013-05-05 10:10:00,
2013-05-05 06:25:00,51.9,50.0,29.88,NE,34,0.0,3.0,93,0.02,,,0.08,weatherlink.com 1.10,2013-05-05 10:25:00,
2013-05-05 06:40:00,51.6,50.0,29.88,WNW,301,3.0,5.0,95,0.03,,,0.09,weatherlink.com 1.10,2013-05-05 10:40:00,
2013-05-05 06:55:00,51.3,50.0,29.89,NNW,339,3.0,6.0,96,0.04,,,0.11,weatherlink.com 1.10,2013-05-05 10:55:00,
2013-05-05 07:10:00,51.3,50.0,29.90,NW,315,1.0,5.0,96,0.07,,,0.14,weatherlink.com 1.10,2013-05-05 11:10:00,
2013-05-05 07:25:00,51.1,50.0,29.89,North,352,2.0,4.0,97,0.10,,,0.18,weatherlink.com 1.10,2013-05-05 11:25:00,
2013-05-05 07:40:00,51.0,50.0,29.90,NW,319,2.0,4.0,97,0.11,,,0.20,weatherlink.com 1.10,2013-05-05 11:40:00,
2013-05-05 07:55:00,51.1,50.0,29.90,NNW,338,2.0,3.0,97,0.12,,,0.23,weatherlink.com 1.10,2013-05-05 11:55:00,
2013-05-05 08:10:00,51.3,51.0,29.90,NE,46,0.0,4.0,97,0.11,,,0.25,weatherlink.com 1.10,2013-05-05 12:10:00,
2013-05-05 08:25:00,51.4,51.0,29.89,NW,322,3.0,5.0,97,0.09,,,0.27,weatherlink.com 1.10,2013-05-05 12:25:00,
2013-05-05 08:40:00,51.4,51.0,29.91,NE,36,5.0,9.0,97,0.11,,,0.32,weatherlink.com 1.10,2013-05-05 12:40:00,
2013-05-05 08:55:00,51.5,51.0,29.91,East,86,6.0,9.0,97,0.17,,,0.40,weatherlink.com 1.10,2013-05-05 12:55:00,
2013-05-05 09:10:00,51.4,50.0,29.91,NE,49,5.0,11.0,96,0.19,,,0.44,weatherlink.com 1.10,2013-05-05 13:10:00,
2013-05-05 09:25:00,51.6,51.0,29.91,NE,42,0.0,9.0,96,0.21,,,0.48,weatherlink.com 1.10,2013-05-05 13:25:00,
2013-05-05 09:40:00,51.6,51.0,29.92,NNE,32,3.0,7.0,96,0.20,,,0.52,weatherlink.com 1.10,2013-05-05 13:40:00,
2013-05-05 09:55:00,51.8,51.0,29.91,NE,44,3.0,11.0,96,0.14,,,0.55,weatherlink.com 1.10,2013-05-05 13:55:00,
2013-05-05 10:10:00,52.0,51.0,29.91,ENE,58,2.0,6.0,96,0.13,,,0.58,weatherlink.com 1.10,2013-05-05 14:10:00,
2013-05-05 10:25:00,52.3,51.0,29.91,East,88,1.0,8.0,96,0.11,,,0.60,weatherlink.com 1.10,2013-05-05 14:25:00,
2013-05-05 10:40:00,52.3,51.0,29.91,ENE,73,3.0,9.0,96,0.11,,,0.63,weatherlink.com 1.10,2013-05-05 14:40:00,
2013-05-05 10:55:00,52.5,51.0,29.92,ENE,76,0.0,7.0,96,0.11,,,0.66,weatherlink.com 1.10,2013-05-05 14:55:00,
2013-05-05 11:10:00,52.8,52.0,29.91,SE,131,3.0,8.0,97,0.11,,,0.69,weatherlink.com 1.10,2013-05-05 15:10:00,
2013-05-05 11:25:00,52.8,52.0,29.91,ENE,60,2.0,6.0,96,0.09,,,0.70,weatherlink.com 1.10,2013-05-05 15:25:00,
2013-05-05 11:40:00,52.8,52.0,29.91,NE,45,2.0,14.0,96,0.11,,,0.75,weatherlink.com 1.10,2013-05-05 15:40:00,
2013-05-05 11:55:00,52.7,52.0,29.91,East,96,2.0,10.0,96,0.13,,,0.79,weatherlink.com 1.10,2013-05-05 15:55:00,
2013-05-05 12:10:00,53.2,52.0,29.91,ENE,58,4.0,5.0,96,0.15,,,0.84,weatherlink.com 1.10,2013-05-05 16:10:00,
2013-05-05 12:25:00,53.7,53.0,29.91,ENE,74,2.0,7.0,96,0.15,,,0.85,weatherlink.com 1.10,2013-05-05 16:25:00,
2013-05-05 12:40:00,53.9,53.0,29.91,NE,49,3.0,7.0,95,0.12,,,0.87,weatherlink.com 1.10,2013-05-05 16:40:00,
2013-05-05 12:55:00,53.8,52.0,29.91,ENE,69,0.0,7.0,95,0.09,,,0.88,weatherlink.com 1.10,2013-05-05 16:55:00,
2013-05-05 13:10:00,53.7,52.0,29.91,East,81,1.0,8.0,95,0.07,,,0.91,weatherlink.com 1.10,2013-05-05 17:10:00,
2013-05-05 13:25:00,54.1,53.0,29.91,East,93,1.0,5.0,96,0.08,,,0.93,weatherlink.com 1.10,2013-05-05 17:25:00,
2013-05-05 13:40:00,54.7,53.0,29.90,East,84,0.0,5.0,95,0.08,,,0.96,weatherlink.com 1.10,2013-05-05 17:40:00,
2013-05-05 13:55:00,54.9,54.0,29.90,NNE,27,1.0,4.0,95,0.11,,,0.99,weatherlink.com 1.10,2013-05-05 17:55:00,
2013-05-05 14:10:00,55.2,54.0,29.90,East,82,1.0,3.0,95,0.12,,,1.03,weatherlink.com 1.10,2013-05-05 18:10:00,
2013-05-05 14:25:00,55.6,54.0,29.89,ENE,76,0.0,3.0,95,0.13,,,1.06,weatherlink.com 1.10,2013-05-05 18:25:00,
2013-05-05 14:55:00,54.9,54.0,29.89,SE,131,0.0,6.0,95,0.09,,,1.08,weatherlink.com 1.10,2013-05-05 18:55:00,
2013-05-05 15:10:00,54.9,54.0,29.89,NE,47,0.0,4.0,96,0.10,,,1.13,weatherlink.com 1.10,2013-05-05 19:10:00,
2013-05-05 15:25:00,54.8,53.0,29.89,NE,49,1.0,3.0,95,0.11,,,1.17,weatherlink.com 1.10,2013-05-05 19:25:00,
2013-05-05 15:40:00,54.7,54.0,29.89,NE,47,1.0,5.0,96,0.15,,,1.22,weatherlink.com 1.10,2013-05-05 19:40:00,
2013-05-05 15:55:00,55.7,55.0,29.88,WNW,290,0.0,4.0,97,0.17,,,1.25,weatherlink.com 1.10,2013-05-05 19:55:00,
2013-05-05 16:10:00,56.4,55.0,29.88,NNE,16,0.0,4.0,96,0.12,,,1.25,weatherlink.com 1.10,2013-05-05 20:10:00,
2013-05-05 16:25:00,56.1,54.0,29.87,North,356,1.0,4.0,94,0.07,,,1.25,weatherlink.com 1.10,2013-05-05 20:25:00,
2013-05-05 16:40:00,56.3,55.0,29.87,North,8,1.0,4.0,95,0.03,,,1.25,weatherlink.com 1.10,2013-05-05 20:40:00,
2013-05-05 16:55:00,56.5,55.0,29.87,NNE,14,0.0,5.0,94,0.00,,,1.25,weatherlink.com 1.10,2013-05-05 20:55:00,
2013-05-05 17:10:00,57.0,56.0,29.87,ENE,78,1.0,1.0,95,0.00,,,1.25,weatherlink.com 1.10,2013-05-05 21:10:00,
2013-05-05 17:25:00,57.4,56.0,29.87,North,358,0.0,3.0,94,0.00,,,1.25,weatherlink.com 1.10,2013-05-05 21:25:00,
2013-05-05 17:40:00,57.7,56.0,29.86,NE,52,0.0,3.0,93,0.00,,,1.25,weatherlink.com 1.10,2013-05-05 21:40:00,
2013-05-05 17:55:00,57.7,56.0,29.86,NNE,32,4.0,5.0,93,0.00,,,1.25,weatherlink.com 1.10,2013-05-05 21:55:00,
2013-05-05 18:10:00,57.4,55.0,29.86,ENE,70,3.0,7.0,93,0.00,,,1.25,weatherlink.com 1.10,2013-05-05 22:10:00,
2013-05-05 18:25:00,56.7,55.0,29.86,East,82,1.0,8.0,94,0.01,,,1.26,weatherlink.com 1.10,2013-05-05 22:25:00,
2013-05-05 18:41:00,56.7,55.0,29.85,ENE,72,2.0,11.0,94,0.01,,,1.26,weatherlink.com 1.10,2013-05-05 22:41:00,
2013-05-05 18:55:00,56.7,55.0,29.85,East,95,6.0,9.0,94,0.01,,,1.26,weatherlink.com 1.10,2013-05-05 22:55:00,
2013-05-05 19:11:00,55.9,54.0,29.84,East,79,4.0,9.0,93,0.01,,,1.26,weatherlink.com 1.10,2013-05-05 23:11:00,
2013-05-05 19:26:00,55.7,54.0,29.84,ENE,73,3.0,8.0,94,0.00,,,1.26,weatherlink.com 1.10,2013-05-05 23:26:00,
2013-05-05 19:41:00,55.4,54.0,29.85,East,86,2.0,8.0,94,0.00,,,1.26,weatherlink.com 1.10,2013-05-05 23:41:00,
2013-05-05 19:56:00,55.4,54.0,29.86,East,101,7.0,8.0,94,0.00,,,1.26,weatherlink.com 1.10,2013-05-05 23:56:00,
2013-05-05 20:11:00,55.5,54.0,29.85,East,86,5.0,7.0,93,0.00,,,1.26,weatherlink.com 1.10,2013-05-06 00:11:00,
2013-05-05 20:26:00,55.4,54.0,29.86,East,84,6.0,10.0,93,0.00,,,1.26,weatherlink.com 1.10,2013-05-06 00:26:00,
2013-05-05 20:41:00,55.2,53.0,29.86,ESE,110,7.0,14.0,92,0.00,,,1.26,weatherlink.com 1.10,2013-05-06 00:41:00,
2013-05-05 20:56:00,54.7,53.0,29.86,ENE,73,4.0,10.0,93,0.00,,,1.26,weatherlink.com 1.10,2013-05-06 00:56:00,
2013-05-05 21:11:00,54.4,53.0,29.86,NW,316,2.0,13.0,93,0.00,,,1.26,weatherlink.com 1.10,2013-05-06 01:11:00,
2013-05-05 21:26:00,54.4,53.0,29.86,East,98,2.0,10.0,93,0.00,,,1.26,weatherlink.com 1.10,2013-05-06 01:26:00,
2013-05-05 21:41:00,54.3,52.0,29.86,ENE,70,1.0,11.0,93,0.00,,,1.26,weatherlink.com 1.10,2013-05-06 01:41:00,
2013-05-05 21:56:00,54.2,52.0,29.86,ENE,58,1.0,11.0,92,0.00,,,1.26,weatherlink.com 1.10,2013-05-06 01:56:00,
2013-05-05 22:11:00,53.7,52.0,29.86,East,91,4.0,14.0,93,0.00,,,1.26,weatherlink.com 1.10,2013-05-06 02:11:00,
2013-05-05 22:26:00,53.8,52.0,29.86,ENE,77,3.0,12.0,93,0.00,,,1.26,weatherlink.com 1.10,2013-05-06 02:26:00,
2013-05-05 22:41:00,53.6,52.0,29.86,East,91,7.0,7.0,93,0.00,,,1.26,weatherlink.com 1.10,2013-05-06 02:41:00,
2013-05-05 22:56:00,53.2,52.0,29.87,ESE,108,2.0,10.0,94,0.00,,,1.26,weatherlink.com 1.10,2013-05-06 02:56:00,
2013-05-05 23:11:00,52.9,51.0,29.88,ESE,108,7.0,8.0,94,0.00,,,1.26,weatherlink.com 1.10,2013-05-06 03:11:00,
2013-05-05 23:26:00,52.8,52.0,29.88,South,169,5.0,8.0,96,0.00,,,1.26,weatherlink.com 1.10,2013-05-06 03:26:00,
2013-05-05 23:41:00,52.8,52.0,29.88,ESE,115,7.0,7.0,95,0.01,,,1.27,weatherlink.com 1.10,2013-05-06 03:41:00,
2013-05-05 23:56:00,52.3,51.0,29.88,West,264,2.0,4.0,96,0.03,,,1.29,weatherlink.com 1.10,2013-05-06 03:56:00,